Weather History for Massena, NY

Change the Weather History Date:

Sunday, December 9, 2012

  Actual Average Record
Temperature  
Mean Temperature 31 °F 25 °F  
Max Temperature 36 °F 33 °F 63 °F (1966)
Min Temperature 26 °F 17 °F -14 °F (1989)
Degree Days  
Heating Degree Days 34 40  
Month to date heating degree days 268 344  
Since 1 July heating degree days 1875 2113  
Cooling Degree Days 0 0  
Month to date cooling degree days 0  
Year to date cooling degree days 363  
Moisture  
Dew Point 24 °F    
Average Humidity 84    
Maximum Humidity 92    
Minimum Humidity 75    
Precipitation  
Precipitation 0.08 in 0.09 in 1.25 in (1970)
Month to date precipitation 1.18 0.78  
Year to date precipitation 27.66 33.31  
Sea Level Pressure  
Sea Level Pressure 30.23 in    
Wind  
Wind Speed 10 mph (NE)    
Max Wind Speed 23 mph    
Max Gust Speed 28 mph    
Visibility 8 miles    
Events Snow    
T = Trace of Precipitation, MM = Missing Value Source: NWS Daily Summary

Daily Weather History Graph

Daily Weather History Graph

Search for Another Location

Airport:

Trip Planner

Search our weather history database for the weather conditions in past years. The results will help you decide how hot, cold, wet, or windy it might be!

Date:

Astronomy

Dec. 09, 2012 Rise Set
Actual Time 7:25 AM EST 4:17 PM EST
Civil Twilight 6:52 AM EST 4:51 PM EST
Nautical Twilight 6:15 AM EST 5:28 PM EST
Astronomical Twilight 5:39 AM EST 6:04 PM EST
Moon 2:47 AM EST (12/9) 1:30 PM EST (12/9)
Length of Visible Light 9h 59m
Length of Day
8h 51m
Waning Crescent, 19% of the Moon is Illuminated
Dec 9
Waning Crescent
Dec 13
New
Dec 20
First Quarter
Dec 28
Full
Jan 4
Last Quarter

Hourly Weather History & Observations

Time (EST) Temp. Windchill Dew Point Humidity Pressure Visibility Wind Dir Wind Speed Gust Speed Precip Events Conditions
12:53 AM 36.0 °F 30.3 °F 33.1 °F 89% 30.10 in 10.0 mi West 6.9 mph 18.4 mph N/A   Overcast
1:53 AM 35.1 °F 27.9 °F 32.0 °F 89% 30.14 in 10.0 mi West 9.2 mph - N/A   Overcast
2:33 AM 32.0 °F 22.1 °F 28.4 °F 87% 30.16 in 10.0 mi West 13.8 mph 23.0 mph N/A   Overcast
2:53 AM 30.9 °F 20.7 °F 27.0 °F 85% 30.19 in 10.0 mi West 13.8 mph - N/A   Overcast
3:53 AM 30.0 °F 21.1 °F 26.1 °F 85% 30.22 in 10.0 mi West 10.4 mph - N/A   Overcast
4:53 AM 28.0 °F 18.6 °F 23.0 °F 81% 30.25 in 10.0 mi West 10.4 mph - N/A   Overcast
5:53 AM 27.0 °F 17.3 °F 23.0 °F 85% 30.30 in 10.0 mi WSW 10.4 mph - N/A   Overcast
6:53 AM 27.0 °F 18.7 °F 21.9 °F 81% 30.34 in 10.0 mi West 8.1 mph - N/A   Overcast
7:53 AM 26.1 °F 18.4 °F 21.0 °F 81% 30.35 in 10.0 mi WSW 6.9 mph - N/A   Overcast
8:53 AM 26.1 °F 20.5 °F 21.0 °F 81% 30.38 in 10.0 mi Variable 4.6 mph - N/A   Overcast
9:53 AM 26.1 °F 18.4 °F 21.0 °F 81% 30.40 in 10.0 mi West 6.9 mph - N/A   Overcast
10:53 AM 26.1 °F 20.5 °F 21.0 °F 81% 30.40 in 10.0 mi WSW 4.6 mph - N/A   Overcast
11:53 AM 27.0 °F - 21.0 °F 78% 30.37 in 10.0 mi Calm Calm - N/A   Overcast
12:53 PM 27.0 °F - 19.9 °F 75% 30.35 in 10.0 mi Calm Calm - N/A   Overcast
1:53 PM 27.0 °F 17.3 °F 19.9 °F 75% 30.34 in 10.0 mi NNE 10.4 mph - N/A   Overcast
2:05 PM 26.6 °F 21.2 °F 19.4 °F 74% 30.32 in 10.0 mi NE 4.6 mph - N/A   Overcast
2:53 PM 27.0 °F 18.7 °F 21.0 °F 78% 30.36 in 10.0 mi NE 8.1 mph - N/A   Overcast
3:49 PM 26.6 °F 18.2 °F 21.2 °F 80% 30.33 in 10.0 mi East 8.1 mph - N/A   Overcast
3:53 PM 26.1 °F 17.6 °F 21.0 °F 81% 30.35 in 10.0 mi East 8.1 mph - N/A   Overcast
4:53 PM 27.0 °F 18.0 °F 21.9 °F 81% 30.32 in 10.0 mi East 9.2 mph - N/A   Overcast
5:53 PM 27.0 °F 17.3 °F 21.9 °F 81% 30.31 in 10.0 mi ENE 10.4 mph - N/A   Overcast
6:49 PM 26.6 °F 15.7 °F 23.0 °F 86% 30.25 in 10.0 mi NE 12.7 mph - N/A   Overcast
6:53 PM 27.0 °F 14.3 °F 23.0 °F 85% 30.26 in 10.0 mi NE 17.3 mph 23.0 mph N/A   Overcast
7:53 PM 28.0 °F 14.6 °F 23.0 °F 81% 30.22 in 10.0 mi ENE 20.7 mph 25.3 mph N/A   Overcast
8:53 PM 28.9 °F 16.1 °F 23.0 °F 78% 30.15 in 10.0 mi ENE 19.6 mph 26.5 mph N/A   Overcast
9:53 PM 28.9 °F 17.7 °F 24.1 °F 82% 30.11 in 10.0 mi ENE 15.0 mph 25.3 mph N/A   Overcast
10:53 PM 28.9 °F 16.9 °F 24.1 °F 82% 30.08 in 4.0 mi ENE 17.3 mph - 0.00 in Snow Light Snow
10:59 PM 28.4 °F 16.6 °F 24.8 °F 86% 30.06 in 1.8 mi ENE 16.1 mph - 0.00 in Snow Light Snow
11:02 PM 28.4 °F 17.0 °F 24.8 °F 86% 30.05 in 1.2 mi ENE 15.0 mph - 0.00 in Snow Light Snow
11:21 PM 28.4 °F 17.0 °F 26.6 °F 93% 30.03 in 0.8 mi ENE 15.0 mph - 0.01 in Snow Light Snow
11:28 PM 28.4 °F 16.2 °F 26.6 °F 93% 30.02 in 0.8 mi ENE 17.3 mph - 0.03 in Snow Light Snow
11:43 PM 28.4 °F 15.8 °F 26.6 °F 93% 30.00 in 1.0 mi ENE 18.4 mph - 0.06 in Snow Light Snow
11:53 PM 28.0 °F 15.3 °F 26.1 °F 92% 30.01 in 1.0 mi ENE 18.4 mph 26.5 mph 0.07 in Snow Light Snow